Flag for United Kingdom Weather past 2 weeks in Whitstable, England, United Kingdom

Now
59 °F

Cool.


Feels Like: 57 °F
Forecast: 56 / 66 °F
Wind: 15 mph from Northwest

Location: Manston

Current Time: Aug 31, 2014 at 10:08:06 AM

Latest Report: Aug 31, 2014 at 9:00 AM


Visibility: 14 mi

Pressure: 30.02 "Hg

Humidity: 80%

Dew point: 53 °F

Location of WhitstableLocation

Historic Weather in Whitstable — Graph

°F

Whitstable temperature yesterday

Maximum temperature yesterday: 66 °F (at 1:00 PM)
Minimum temperature yesterday: 59 °F (at 11:00 PM)
Average temperature yesterday: 62 °F

Past Weeks' High & Low Weather Summary

 TemperatureHumidityPressure
High71 °F (Aug 28, 4:00 PM)98% (Aug 25, 8:00 PM)30.16 "Hg (Aug 25, 8:00 PM)
Low46 °F (Aug 24, 5:00 AM)43% (Aug 20, 5:00 PM)29.55 "Hg (Aug 26, 1:00 AM)
Average59 °F75%29.92 "Hg
* Reported Aug 16 8:00 AM — Aug 31 8:00 AM, Whitstable, Weather by CustomWeather, © 2014

Note: Actual official high and low records may vary slightly from our data, if they occured in-between our weather recording intervals... More about our weather records

Advertising

Whitstable weather history for previous 24 hours

 ConditionsComfort  
Time TempWeatherWind HumidityBarometerVisibility
8:00 AM
Aug 31
59 °FCool.10 mph82%30.02 "Hg15 mi
7:00 AM58 °FCool.10 mph84%30.01 "Hg14 mi
6:00 AM58 °FCool.10 mph85%30.00 "Hg18 mi
5:00 AM55 °FCool.8 mph91%30.00 "Hg11 mi
4:00 AM55 °FCool.8 mph92%30.01 "Hg12 mi
3:00 AM55 °FCool.9 mph89%30.01 "Hg14 mi
2:00 AM56 °FCool.9 mph88%30.01 "Hg15 mi
1:00 AM56 °FCool.8 mph87%30.02 "Hg16 mi
12:00 AM58 °FCool.9 mph82%30.01 "Hg22 mi
11:00 PM
Aug 30
59 °FCool.10 mph81%30.01 "Hg16 mi
10:00 PM60 °FCool.9 mph78%30.01 "Hg16 mi
9:00 PM60 °FCool.8 mph75%30.01 "Hg22 mi
8:00 PM61 °FCool.7 mph73%30.00 "Hg16 mi
7:00 PM62 °FCool.5 mph71%29.99 "Hg19 mi
6:00 PM64 °FMild.9 mph65%29.99 "Hg22 mi
5:00 PM64 °FMild.10 mph63%29.99 "Hg19 mi
4:00 PM65 °FMild.12 mph62%29.99 "Hg19 mi
3:00 PM64 °FMild.13 mph64%29.99 "Hg18 mi
2:00 PM66 °FMild.16 mph56%29.98 "Hg19 mi
1:00 PM66 °FMild.17 mph54%29.98 "Hg15 mi
12:00 PM64 °FMild.17 mph60%29.98 "Hg16 mi
11:00 AM63 °FMild.20 mph58%29.97 "Hg19 mi
10:00 AM63 °FMild.15 mph73%29.96 "Hg12 mi
Weather by CustomWeather, © 2014

See weather overviewHow to use our weather pages